[[{"header":{"parameterUnit":"m.s-1","parameterCategory":1,"la1":30.2991,"la2":30.254,"lo1":-89.0895,"lo2":-89.0444,"dy":0.0017,"dx":0.0017,"nx":28,"ny":28,"refTime":"2025-04-02T03:00:00:Z","depth":0,"parameterNumber":2,"parameterNumberName":"U-component_of_WINDS"},"data":[0,0,0,0,0,0,0,0,0,0,0,0,0,0,0,0,0,0,0,0,0,0,0,0,0,0,0,0,0,0,0,0,0,0,0,0,0,0,0,0,0,0,0,0,0,0,0,0,0,0,0,0,0,0,0,0,0,0,-6.6483,-6.6484,0,-6.6584,-6.6585,-6.6586,-6.6553,-6.6551,-6.6549,-6.6547,-6.6644,-6.6649,-6.6653,0,0,0,0,0,0,0,0,0,0,0,0,0,-6.6256,-6.6261,-6.6483,-6.6484,-6.6485,-6.6583,-6.6585,-6.6586,-6.6554,-6.6551,-6.6548,-6.6546,-6.6643,-6.6648,-6.6654,0,0,0,0,0,0,0,0,0,0,0,0,0,-6.6356,-6.6262,-6.6482,-6.6481,-6.6482,-6.6583,-6.6585,-6.6587,-6.6554,-6.6551,-6.6548,-6.6545,-6.6641,-6.6648,-6.6654,-6.6762,0,0,-6.6676,-6.6679,0,0,0,0,0,0,0,0,-6.635,-6.6364,-6.648,-6.6481,-6.6482,-6.6553,-6.6541,-6.6645,-6.6555,-6.6526,-6.6547,-6.6543,-6.6616,-6.6625,-6.6651,-6.6766,-6.677,-6.6676,-6.668,-6.6683,-6.6685,0,0,0,0,0,0,0,-6.6343,-6.6359,-6.6522,-6.6482,-6.6483,-6.6473,-6.6484,-6.656,-6.6588,-6.6529,-6.6527,-6.6539,-6.6616,-6.6644,-6.6653,-6.6772,-6.6676,-6.6682,-6.6686,-6.6689,-6.6979,-6.6982,0,0,0,0,0,0,-6.6336,-6.6354,-6.6519,-6.6525,-6.6407,-6.648,-6.6492,-6.6533,-6.6587,-6.6592,-6.6542,-6.6537,-6.6634,-6.6645,-6.6656,-6.6783,-6.6683,-6.669,-6.6694,-6.6975,-6.698,-6.6984,0,0,0,0,0,0,-6.6332,-6.6351,-6.6515,-6.6439,-6.6459,-6.6488,-6.6534,-6.6537,-6.6565,-6.6597,-6.6601,-6.6566,-6.6632,-6.6646,-6.6736,-6.6786,-6.6693,-6.6699,-6.6971,-6.6977,-6.6982,-6.7039,0,0,0,0,0,0,-6.6325,-6.635,-6.6392,-6.6441,-6.6464,-6.6595,-6.6537,-6.6541,-6.6578,-6.6573,-6.6621,-6.6625,-6.663,-6.6726,-6.6743,-6.6794,-6.6704,-6.6967,-6.6974,-6.698,-6.7033,-6.7046,-6.7057,0,0,0,0,0,-6.6317,-6.6403,-6.6394,-6.6414,-6.6517,-6.6598,-6.6611,-6.6616,-6.6582,-6.6623,-6.6644,-6.6624,-6.6779,-6.6735,-6.6754,-6.6808,-6.6963,-6.6972,-6.6979,-6.7027,-6.7043,-6.7057,0,0,0,0,0,0,-6.6357,-6.6409,-6.64,-6.6505,-6.6547,-6.6592,-6.6644,-6.6633,-6.6685,-6.6678,-6.6681,-6.6692,-6.6783,-6.6805,-6.6756,-6.6914,-6.6866,-6.6878,-6.6896,-6.6911,-6.6923,-6.6914,-6.671,0,0,0,0,0,-6.6379,-6.6442,-6.6483,-6.6571,-6.6594,-6.6616,-6.6651,-6.6652,-6.6695,-6.6713,-6.674,-6.6781,-6.6839,-6.6877,-6.6932,-6.7037,-6.7046,-6.7084,-6.7096,-6.7106,-6.7115,-6.717,-6.7187,-6.701,-6.701,-6.701,0,0,-6.6422,-6.6459,-6.6498,-6.658,-6.6613,-6.6677,-6.6631,-6.67,-6.6746,-6.6722,-6.6808,-6.683,-6.6877,-6.6974,-6.7018,-6.6995,-6.7166,-6.7116,-6.7124,-6.7127,-6.718,-6.7197,-6.7212,-6.7015,-6.7014,-6.7013,0,0,-6.6534,-6.6569,-6.6645,-6.668,-6.6732,-6.6747,-6.6765,-6.6813,-6.6827,-6.6914,-6.6897,-6.6952,-6.7052,-6.7086,-6.7116,-6.7242,-6.7224,-6.726,-6.7322,-6.7376,-6.7389,-6.7402,-6.7444,-6.7459,-6.727,-6.727,-6.727,0,-6.658,-6.6677,-6.6686,-6.6756,-6.6792,-6.6777,-6.6853,-6.6886,-6.6953,-6.6977,-6.6951,-6.7076,-6.7106,-6.721,-6.7242,-6.7268,-6.7287,-6.7253,-6.7387,-6.74,-6.7411,-6.7451,-6.7468,-6.7274,-6.7274,-6.7273,-6.7273,0,-6.6731,-6.6798,-6.6854,-6.692,-6.6963,-6.7036,-6.7054,-6.7096,-6.7094,-6.7111,-6.7199,-6.7235,-6.7297,-6.7323,-6.7321,-6.7427,-6.741,-6.7386,-6.7337,-6.7432,-6.7469,-6.7485,-6.7279,-6.7278,-6.7277,-6.7276,0,0,-6.6866,-6.6939,-6.6959,-6.6988,-6.7045,-6.7096,-6.7169,-6.7231,-6.7266,-6.7313,-6.7372,-6.7458,-6.7436,-6.7471,-6.7473,-6.7521,-6.7616,-6.749,-6.7491,-6.7509,-6.7731,-6.7746,-6.7764,-6.7606,-6.7609,-6.7612,-6.7726,0,-6.698,-6.7108,-6.7119,-6.7234,-6.7294,-6.7282,-6.7345,-6.7386,-6.7404,-6.7457,-6.7477,-6.7537,-6.7505,-6.7526,-6.7573,-6.7594,-6.7659,-6.7587,-6.7658,-6.766,-6.7642,-6.7785,-6.7801,-6.7907,-6.7742,-6.7744,-6.7746,0,-6.7129,-6.7182,-6.7303,-6.7352,-6.7378,-6.7434,-6.7492,-6.7544,-6.759,-6.76,-6.764,-6.7636,-6.7708,-6.766,-6.7758,-6.7708,-6.7739,-6.7754,-6.7758,-6.7761,-6.7706,-6.7788,-6.7941,-6.7956,-6.777,-6.7768,-6.7766,0,-6.7211,-6.7314,-6.7399,-6.7426,-6.7485,-6.7525,-6.7551,-6.7594,-6.7631,-6.7682,-6.7705,-6.7764,-6.7794,-6.7839,-6.785,-6.7814,-6.7947,-6.79,-6.7955,-6.7954,-6.7979,-6.7977,-6.8136,-6.8006,-6.8006,-6.8005,-6.8005,0,-6.7335,-6.7408,-6.7437,-6.7489,-6.7571,-6.7583,-6.7663,-6.7687,-6.7726,-6.7781,-6.7775,-6.7826,-6.784,-6.7894,-6.7903,-6.7982,-6.7997,-6.8005,-6.8005,-6.8003,-6.8001,-6.802,-6.8011,-6.801,-6.8009,-6.8008,-6.8007,0,-6.7439,-6.7462,-6.7554,-6.7604,-6.7618,-6.7676,-6.7718,-6.7767,-6.7786,-6.7856,-6.7872,-6.7901,-6.7964,-6.7981,-6.8056,-6.8062,-6.8154,-6.815,-6.8138,-6.8137,-6.8189,-6.8183,-6.8362,-6.8385,-6.8243,-6.8245,-6.8246,0,-6.7514,-6.7571,-6.7628,-6.7665,-6.7694,-6.7754,-6.7793,-6.7807,-6.7847,-6.7904,-6.7946,-6.8009,-6.8059,-6.816,-6.8186,-6.8243,-6.8238,-6.8297,-6.8246,-6.8242,-6.8235,-6.823,-6.8234,-6.8305,-6.8307,-6.8308,-6.8309,0,-6.7644,-6.7653,-6.771,-6.777,-6.7817,-6.7865,-6.7911,-6.7941,-6.7962,-6.8007,-6.8072,-6.8112,-6.8189,-6.825,-6.8309,-6.8334,-6.8324,-6.8326,-6.834,-6.8336,-6.8326,-6.8329,-6.816,-6.832,-6.8319,-6.8318,-6.8317,-6.8317,-6.7734,-6.7783,-6.7831,-6.7894,-6.7931,-6.7974,-6.8023,-6.8049,-6.8104,-6.8169,-6.8175,-6.8245,-6.8289,-6.8367,-6.8395,-6.8449,-6.8431,-6.8454,-6.8458,-6.8463,-6.8466,-6.8322,-6.846,-6.846,-6.846,-6.8459,-6.8459,0,-6.7861,-6.7892,-6.795,-6.8015,-6.8065,-6.8055,-6.8106,-6.8147,-6.8209,-6.8253,-6.8303,-6.8378,-6.8438,-6.847,-6.8529,-6.8566,-6.8562,-6.858,-6.8575,-6.8581,-6.848,-6.846,-6.8582,-6.8582,-6.8582,-6.8582,-6.8582,-6.8582,-6.7932,-6.8015,-6.803,-6.813,-6.816,-6.823,-6.826,-6.8299,-6.8334,-6.8418,-6.8468,-6.849,-6.8528,-6.859,-6.8644,-6.8652,-6.8672,-6.8692,-6.8697,-6.8601,-6.8588,-6.8576,-6.8557,-6.8697,-6.8697,-6.8793,-6.8794,-6.8794]},{"header":{"parameterUnit":"m.s-1","parameterCategory":1,"la1":30.2991,"la2":30.254,"lo1":-89.0895,"lo2":-89.0444,"dy":0.0017,"dx":0.0017,"nx":28,"ny":28,"refTime":"2025-04-02T03:00:00:Z","depth":0,"parameterNumber":3,"parameterNumberName":"V-component_of_WINDS"},"data":[0,0,0,0,0,0,0,0,0,0,0,0,0,0,0,0,0,0,0,0,0,0,0,0,0,0,0,0,0,0,0,0,0,0,0,0,0,0,0,0,0,0,0,0,0,0,0,0,0,0,0,0,0,0,0,0,0,0,4.0962,4.0963,0,4.1078,4.108,4.1081,4.1096,4.1094,4.1093,4.1092,4.1204,4.1208,4.1212,0,0,0,0,0,0,0,0,0,0,0,0,0,4.0748,4.0752,4.0962,4.0963,4.0965,4.1078,4.108,4.1081,4.1096,4.1094,4.1093,4.1092,4.1203,4.1208,4.1212,0,0,0,0,0,0,0,0,0,0,0,0,0,4.085,4.0753,4.0962,4.0986,4.0989,4.1078,4.108,4.1082,4.1096,4.1094,4.1093,4.1091,4.1201,4.1207,4.1213,4.1283,0,0,4.1231,4.1234,0,0,0,0,0,0,0,0,4.0844,4.0858,4.0981,4.0984,4.0988,4.1071,4.1045,4.1149,4.1096,4.1055,4.1092,4.109,4.1161,4.117,4.1195,4.1288,4.1293,4.1232,4.1236,4.1238,4.124,0,0,0,0,0,0,0,4.0837,4.0853,4.1008,4.0983,4.0987,4.0989,4.1002,4.1065,4.1115,4.1059,4.106,4.1074,4.1162,4.1189,4.1198,4.1295,4.1232,4.1237,4.1241,4.1243,4.1454,4.1456,0,0,0,0,0,0,4.0826,4.0847,4.1004,4.1011,4.0911,4.0995,4.1009,4.1046,4.1115,4.1124,4.1075,4.1074,4.118,4.1191,4.1202,4.1291,4.1238,4.1244,4.1247,4.1452,4.1454,4.1456,0,0,0,0,0,0,4.0822,4.084,4.0999,4.093,4.095,4.1,4.1042,4.1049,4.1076,4.1128,4.1136,4.1094,4.1179,4.1193,4.1264,4.1295,4.1247,4.1252,4.1449,4.1452,4.1455,4.1467,0,0,0,0,0,0,4.0815,4.0838,4.0867,4.093,4.0954,4.1061,4.1043,4.1053,4.1087,4.1087,4.1147,4.1156,4.1179,4.1255,4.127,4.1302,4.1257,4.1447,4.1451,4.1454,4.1464,4.147,4.1475,0,0,0,0,0,4.0808,4.0863,4.0868,4.0887,4.099,4.1063,4.1076,4.1104,4.109,4.1118,4.1151,4.1154,4.1289,4.1262,4.1279,4.1313,4.1445,4.145,4.1454,4.1462,4.1469,4.1475,0,0,0,0,0,0,4.0799,4.0872,4.0878,4.0956,4.1004,4.1065,4.1102,4.111,4.116,4.1158,4.1188,4.1201,4.1271,4.1299,4.1268,4.1386,4.1365,4.1373,4.1365,4.1373,4.1378,4.137,4.1262,0,0,0,0,0,4.0807,4.0861,4.0921,4.0984,4.1008,4.1051,4.1083,4.1101,4.115,4.1169,4.1208,4.1254,4.1307,4.1341,4.1392,4.1468,4.1482,4.15,4.1505,4.151,4.1516,4.156,4.157,4.1471,4.1471,4.1471,0,0,4.0822,4.0868,4.0901,4.0984,4.1023,4.1078,4.1067,4.1125,4.1166,4.1177,4.1248,4.1278,4.1331,4.1405,4.1439,4.143,4.1547,4.1515,4.1518,4.1523,4.1566,4.1575,4.1584,4.1474,4.1473,4.1473,0,0,4.0879,4.0919,4.0978,4.1018,4.1078,4.1106,4.112,4.1181,4.1203,4.1274,4.1285,4.1332,4.1422,4.1461,4.1492,4.1566,4.1571,4.1582,4.161,4.1653,4.1661,4.1668,4.1696,4.1705,4.1588,4.1588,4.1588,0,4.0889,4.0975,4.1005,4.1065,4.1101,4.1117,4.1176,4.1212,4.1285,4.1309,4.1299,4.1414,4.1451,4.1535,4.1554,4.1578,4.1595,4.1575,4.1658,4.1665,4.1672,4.1699,4.1709,4.1589,4.1589,4.1589,4.1589,0,4.0986,4.1045,4.1085,4.1159,4.1199,4.1258,4.1296,4.1333,4.1348,4.1377,4.145,4.1495,4.1557,4.1578,4.159,4.1665,4.1658,4.1652,4.1632,4.1682,4.1708,4.1718,4.1591,4.159,4.159,4.159,0,0,4.104,4.1133,4.1147,4.1182,4.125,4.1295,4.1354,4.1418,4.145,4.1499,4.155,4.1627,4.1623,4.1658,4.1676,4.1713,4.1771,4.1703,4.1705,4.1715,4.1857,4.1862,4.1874,4.1774,4.1776,4.1778,4.1853,0,4.1106,4.1216,4.1246,4.1337,4.1393,4.141,4.1461,4.1508,4.1537,4.1587,4.1618,4.1673,4.1663,4.1685,4.1722,4.1756,4.18,4.1751,4.1821,4.1823,4.1809,4.1887,4.1892,4.1961,4.1863,4.1865,4.1866,0,4.1198,4.1254,4.1352,4.1416,4.144,4.1486,4.1548,4.1596,4.1649,4.1668,4.1709,4.1723,4.1785,4.1761,4.1846,4.1812,4.1843,4.1864,4.1867,4.1875,4.1849,4.1899,4.1984,4.1995,4.1882,4.1881,4.188,0,4.1231,4.1329,4.1402,4.143,4.1506,4.1538,4.1571,4.1623,4.166,4.1713,4.1737,4.1795,4.1827,4.1871,4.1901,4.1881,4.1984,4.1962,4.2001,4.2001,4.2023,4.2021,4.2115,4.204,4.204,4.2039,4.2039,0,4.1302,4.1362,4.1418,4.1462,4.153,4.1563,4.1628,4.1661,4.1708,4.1758,4.1774,4.182,4.1856,4.1907,4.193,4.1998,4.2012,4.2028,4.2034,4.2028,4.2026,4.2049,4.2045,4.2042,4.2042,4.2041,4.204,0,4.135,4.139,4.147,4.1536,4.1554,4.1601,4.1657,4.17,4.173,4.1794,4.1811,4.1857,4.1919,4.1953,4.2028,4.2043,4.212,4.2122,4.2103,4.2106,4.2143,4.214,4.2256,4.2274,4.2185,4.2186,4.2186,0,4.1394,4.1441,4.1514,4.155,4.1585,4.1642,4.1681,4.1715,4.1755,4.1821,4.1856,4.1919,4.1971,4.2068,4.2107,4.2165,4.217,4.2207,4.2179,4.2172,4.2173,4.217,4.2176,4.2212,4.2213,4.2213,4.2214,0,4.1469,4.1487,4.1544,4.1609,4.1656,4.1707,4.1758,4.1786,4.1828,4.1872,4.1936,4.1977,4.2056,4.2119,4.218,4.2212,4.222,4.2222,4.2235,4.223,4.2218,4.2227,4.2118,4.222,4.2219,4.2219,4.2218,4.2218,4.1518,4.1562,4.1621,4.1684,4.1726,4.1774,4.1819,4.1857,4.1912,4.1981,4.1997,4.2065,4.2118,4.2203,4.2236,4.2289,4.2282,4.2299,4.2304,4.2308,4.2311,4.2209,4.23,4.2299,4.2299,4.2299,4.2299,0,4.1596,4.1635,4.1693,4.1766,4.1816,4.1822,4.1878,4.1919,4.198,4.203,4.2082,4.2157,4.2218,4.2263,4.2325,4.2358,4.2364,4.2373,4.2372,4.238,4.2312,4.2297,4.2368,4.2368,4.2368,4.2368,4.2368,4.2368,4.1642,4.1717,4.1742,4.1839,4.1877,4.1947,4.1979,4.2023,4.2063,4.2147,4.2199,4.2229,4.2277,4.2343,4.2399,4.241,4.2433,4.2442,4.2454,4.2391,4.2384,4.2377,4.2362,4.2447,4.2447,4.2518,4.2518,4.2519]}]]